This demonstration page uses our WeatherBlox Daily Observations layout. Learn more.

Left ArrowRight Arrow

Hourly Observations for June 21, 2018

Temp ( °F °C ) Dew Point ( °F °C ) Humidity (%) Winds ( mph kmh ) Pressure ( in mb ) Visibility ( mi km ) Precip ( " mm )
12:53 am 00:53 Clear 62 16.7 54 12.2 75 75 Calm 29.96 1014 10 16 0.00 0.00
1:53 am 01:53 Clear 57 13.9 54 12.2 90 90 ENE 8 13 29.95 1014 10 16 0.00 0.00
2:53 am 02:53 Clear 57 13.9 54 12.2 90 90 E 5 7 29.94 1014 10 16 0.00 0.00
3:53 am 03:53 Partly Cloudy 57 13.9 53 11.7 87 87 E 6 9 29.93 1013 10 16 0.00 0.00
4:53 am 04:53 Clear 55 12.8 53 11.7 93 93 ENE 6 9 29.91 1013 10 16 0.00 0.00
5:53 am 05:53 Sunny 55 12.8 53 11.7 93 93 ENE 8 13 29.92 1013 10 16 0.00 0.00
6:53 am 06:53 Sunny 59 15 55 12.8 87 87 E 6 9 29.91 1013 10 16 0.00 0.00
7:53 am 07:53 Sunny 62 16.7 55 12.8 78 78 Calm 29.91 1013 10 16 0.00 0.00
8:53 am 08:53 Sunny 67 19.4 57 13.9 71 71 E 6 9 29.89 1012 10 16 0.00 0.00
9:53 am 09:53 Sunny 73 22.8 55 12.8 53 53 ESE 6 9 29.88 1012 10 16 0.00 0.00
10:53 am 10:53 Sunny 77 25 54 12.2 45 45 Calm 29.86 1011 10 16 0.00 0.00
11:53 am 11:53 Sunny 79 26.1 55 12.8 44 44 VRB 3 6 29.85 1011 10 16 0.00 0.00
12:53 pm 12:53 Mostly Sunny 81 27.2 55 12.8 41 41 E 7 11 29.83 1010 10 16 0.00 0.00
1:53 pm 13:53 Partly Cloudy 81 27.2 52 11.1 37 37 WSW 6 9 29.82 1010 10 16 0.00 0.00
2:53 pm 14:53 Mostly Cloudy 83 28.3 51 10.6 33 33 E 6 9 29.79 1009 10 16 0.00 0.00
3:53 pm 15:53 Mostly Cloudy 81 27.2 51 10.6 35 35 SSE 7 11 29.79 1009 10 16 0.00 0.00
4:02 pm 16:02 Mostly Cloudy with Thunderstorms 81 27 54 12 39 39 S 10 17 29.65 1004 10 16 0.00 0.00
4:24 pm 16:24 Cloudy with Thunderstorms 66 19 57 14 73 73 SSW 18 30 29.74 1007 6 10 0.00 0.00
4:37 pm 16:37 Windy with Storms Likely 68 20 56 13.3 65 65 S 22 35 29.71 1006 7 11 0.08 2.03
4:53 pm 16:53 Cloudy with Thunderstorms 70 21.1 59 15 68 68 SSE 17 28 29.80 1009 6 10 0.10 2.54
5:13 pm 17:13 Mostly Cloudy with Nearby Thunderstorms 73 22.8 62 16.7 69 69 S 15 24 29.71 1006 10 16 0.01 0.25
5:27 pm 17:27 Partly Cloudy 77 25 59 15 54 54 S 15 24 29.68 1005 10 16 0.01 0.25
5:53 pm 17:53 Sunny 75 23.9 57 13.9 54 54 S 10 17 29.78 1008 10 16 0.01 0.25
6:53 pm 18:53 Sunny 77 25 56 13.3 48 48 SW 9 15 29.77 1008 10 16 0.00 0.00
7:53 pm 19:53 Sunny 76 24.4 56 13.3 50 50 SW 6 9 29.78 1008 10 16 0.00 0.00
8:53 pm 20:53 Mostly Sunny 70 21.1 60 15.6 71 71 SE 5 7 29.77 1008 10 16 0.00 0.00
9:53 pm 21:53 Clear 66 18.9 59 15 78 78 SSW 7 11 29.78 1008 10 16 0.00 0.00
10:53 pm 22:53 Clear 63 17.2 56 13.3 78 78 S 6 9 29.76 1008 10 16 0.00 0.00
11:53 pm 23:53 Clear 61 16.1 56 13.3 84 84 Calm 29.77 1008 10 16 0.00 0.00

Powered by AerisWeather